Regional Weather Roundup
Issued by NWS Cleveland, OH

Home | Current Version | Previous Version | Graphics & Text | Print | Product List | Glossary On
Versions: 1 2 3 4 5 6 7 8 9 10 11 12 13 14 15 16 17 18 19 20 21 22 23 24 25 26 27 28 29 30 31 32 33 34 35 36 37 38 39 40 41 42 43 44 45 46 47 48 49 50
000
ASUS41 KCLE 211510
RWRCLE
OHIO REGIONAL WEATHER ROUNDUP
NATIONAL WEATHER SERVICE WILMINGTON, OH
1000 AM EST WED FEB 21 2018

NOTE: "FAIR" INDICATES FEW OR NO CLOUDS BELOW 12,000 FEET WITH NO
SIGNIFICANT WEATHER AND/OR OBSTRUCTIONS TO VISIBILITY.

OHZ001>008-015>018-024>027-034-035-043-044-211600-
   NORTHWEST OHIO

CITY           SKY/WX    TMP DP  RH WIND       PRES   REMARKS
DEFIANCE       LGT RAIN  36  32  85 NW12      30.41R
FINDLAY        LGT RAIN  42  38  85 N15       30.35R
TOLEDO EXPRESS LGT RAIN  39  38  96 NW9       30.37R
TOLEDO EXEC    LGT RAIN  41  38  89 NW8       30.38R
LIMA           LGT RAIN  40  40 100 NW10      30.36R
$$

OHZ009>014-019>023-028>033-038-089-211600-
   NORTHEAST OHIO

CITY           SKY/WX    TMP DP  RH WIND       PRES   REMARKS
CLE-HOPKINS    LGT RAIN  45  43  93 N12       30.35R
CLE-LAKEFRONT  LGT RAIN  41  39  93 N3        30.32R FOG
CUY CO. ARPT   LGT RAIN  43  43 100 N13       30.32R FOG
LORAIN-ELYRIA  LGT RAIN  42  38  85 N14G24    30.35R FOG
ASHTABULA      LGT RAIN  43  42  97 NW9       30.30R
AKRON-CANTON   LGT RAIN  57  53  86 NW9       30.28R FOG
WOOSTER        LGT RAIN  51  49  92 N13       30.29R FOG
MANSFIELD      LGT RAIN  48  47  96 N16       30.30R
YOUNGSTOWN     LGT RAIN  56  54  93 NW10      30.25R
$$

OHZ042-051>053-060>062-070>072-077>081-211600-
  SOUTHWEST OHIO

CITY           SKY/WX    TMP DP  RH WIND       PRES   REMARKS
CINC-COVINGTON LGT RAIN  57  57 100 NW3       30.32R FOG
CINC-LUNKEN    LGT RAIN  57  57 100 CALM      30.33R FOG
HAMILTON       LGT RAIN  52  52 100 NW13      30.35R
DAYTON         LGT RAIN  45  45 100 N12       30.35R
WRIGHT-PAT AFB LGT RAIN  48  46  92 NW16      30.32R
DAYTON GENERAL LGT RAIN  50  47  89 NW9       30.33R
WILMINGTON     LGT RAIN  55  55 100 CALM      30.31R FOG
$$

OHZ036-037-039>041-045>050-054>059-063>069-073>076-082>088-211600-
  CENTRAL AND SOUTHEAST OHIO

CITY           SKY/WX    TMP DP  RH WIND       PRES   REMARKS
COLUMBUS       DRIZZLE   58  57  97 NW3       30.29R
OSU AIRPORT    LGT RAIN  56  56 100 N6        30.29R FOG
BOLTON FIELD   CLOUDY    55  55 100 N5        30.30R
RICKENBACK AFB LGT RAIN  56  56 100 CALM      30.30R
NEWARK         LGT RAIN  58  53  84 N7        30.29R
MARION         LGT RAIN  48  46  93 NW15      30.33R
LANCASTER      LGT RAIN  57  54  89 NW5       30.30R FOG
ZANESVILLE     CLOUDY    63  54  72 NW10      30.26R
NEW PHILLY     CLOUDY    58  54  86 N7        30.27R
$$




USA.gov is the U.S. government's official web portal to all federal, state and local government web resources and services.